Home > Weather > Manado > Past weeks

Flag for Indonesia Past Weather in Manado, North Sulawesi, Indonesia — Yesterday and Last 2 Weeks

Now
72 °F

Passing clouds.


Feels Like: 67 °F
Forecast: 77 / 88 °F
Wind: 3 mph from East

Location: Menado / Dr. Sam Ratulangi

Current Time: Jun 25, 2016 at 4:21:30 AM

Latest Report: Jun 25, 2016 at 3:00 AM


Visibility: 6 mi

Pressure: 29.83 "Hg

Humidity: 94%

Dew Point: 70 °F

Location of ManadoLocation

Past Weather in Manado — Graph

°F

Manado Temperature Yesterday

Maximum temperature yesterday: 90 °F (at 9:30 AM)
Minimum temperature yesterday: 73 °F (at 7:30 PM)
Average temperature yesterday: 80 °F

High & Low Weather Summary for the Past Weeks

 TemperatureHumidityPressure
High95 °F (Jun 16, 11:00 AM)100% (Jun 11, 4:00 AM)29.95 "Hg (Jun 11, 4:00 AM)
Low72 °F (Jun 21, 6:00 PM)49% (Jun 24, 11:00 AM)29.71 "Hg (Jun 17, 2:00 PM)
Average80 °F84%29.83 "Hg
* Reported Jun 10 3:00 AM — Jun 25 3:00 AM, Manado, Weather by CustomWeather, © 2016

Note: Actual official high and low records may vary slightly from our data, if they occured in-between our weather recording intervals... More about our weather records

Advertising

Manado Weather History for the Previous 24 Hours

Scroll right to see more
 ConditionsComfort  
Time TempWeatherWind HumidityBarometerVisibility
3:00 AM
Sat, Jun 25
72 °FPassing clouds.3 mph94%29.83 "Hg6 mi
2:30 AM72 °FLight rain. Passing clouds.2 mph94%29.86 "Hg4 mi
2:00 AM72 °FLight rain. Passing clouds.2 mph94%29.86 "Hg4 mi
1:30 AM72 °FLight rain. Passing clouds.2 mph94%29.86 "Hg4 mi
1:00 AM72 °FLight rain. Passing clouds.1 mph100%29.89 "Hg4 mi
12:30 AM72 °FLight rain. Passing clouds.2 mph100%29.89 "Hg4 mi
12:00 AM73 °FLight rain. Passing clouds.2 mph94%29.92 "Hg4 mi
11:30 PM
Fri, Jun 24
73 °FLight rain. Passing clouds.2 mph94%29.92 "Hg4 mi
11:00 PM73 °FLight rain. Passing clouds.2 mph89%29.92 "Hg4 mi
10:30 PM73 °FLight rain. Passing clouds.3 mph94%29.92 "Hg4 mi
10:00 PM73 °FLight rain. Passing clouds.2 mph94%29.92 "Hg4 mi
9:30 PM73 °FLight rain. Passing clouds.3 mph100%29.92 "Hg4 mi
9:00 PM75 °FLight rain. Passing clouds.3 mph94%29.92 "Hg4 mi
8:30 PM75 °FLight rain. Passing clouds.2 mph94%29.92 "Hg4 mi
8:00 PM73 °FLight rain. Passing clouds.2 mph100%29.92 "Hg3 mi
7:30 PM73 °FLight rain. Passing clouds.5 mph94%29.89 "Hg3 mi
7:00 PM75 °FRain. Passing clouds.9 mph94%29.89 "Hg3 mi
6:30 PM75 °FLight rain. Passing clouds.6 mph94%29.86 "Hg2 mi
6:00 PM77 °FRain. Passing clouds.13 mph89%29.86 "Hg1 mi
5:30 PM82 °FScattered clouds.7 mph79%29.83 "Hg4 mi
5:00 PM82 °FScattered clouds.5 mph74%29.83 "Hg6 mi
4:30 PM84 °FScattered clouds.5 mph70%29.80 "Hg6 mi
4:00 PM84 °FScattered clouds.6 mph70%29.80 "HgN/A
3:30 PM84 °FScattered clouds.7 mph66%29.80 "HgN/A
3:00 PM86 °FScattered clouds.7 mph62%29.80 "HgN/A
2:30 PM88 °FScattered clouds.10 mph59%29.80 "HgN/A
2:00 PM90 °FScattered clouds.7 mph59%29.80 "HgN/A
1:30 PM88 °FScattered clouds.8 mph62%29.80 "HgN/A
1:00 PM90 °FScattered clouds.7 mph59%29.80 "HgN/A
12:30 PM90 °FScattered clouds.6 mph59%29.80 "HgN/A
12:00 PM90 °FScattered clouds.8 mph55%29.83 "HgN/A
11:30 AM90 °FScattered clouds.7 mph52%29.83 "HgN/A
11:00 AM90 °FScattered clouds.7 mph49%29.83 "HgN/A
10:30 AM90 °FScattered clouds.7 mph55%29.86 "HgN/A
10:00 AM90 °FScattered clouds.3 mph55%29.86 "HgN/A
9:30 AM90 °FPassing clouds.3 mph59%29.86 "HgN/A
9:00 AM88 °FPassing clouds.2 mph59%29.86 "HgN/A
8:30 AM86 °FPassing clouds.2 mph75%29.86 "HgN/A
8:00 AM82 °FPassing clouds.1 mph84%29.86 "HgN/A
7:30 AM79 °FPassing clouds.No wind89%29.86 "HgN/A
7:00 AM79 °FPassing clouds.2 mph89%29.83 "HgN/A
6:30 AM75 °FPassing clouds.2 mph100%29.83 "HgN/A
6:00 AM75 °FPassing clouds.2 mph94%29.83 "HgN/A
5:30 AM75 °FPassing clouds.No wind94%29.83 "HgN/A
4:30 AM75 °FPassing clouds.No wind94%29.80 "Hg6 mi
4:00 AM75 °FPassing clouds.2 mph94%29.80 "Hg6 mi
Weather by CustomWeather, © 2016

See weather overviewHow to use our weather pages